Location: Newark
(47.5833°N, 8.1500°E)
Time: 14:00:48
(UTC+00:00)

Vanguard 1 Rocket - Visible Passes

Search period start: 31 October 2020 00:00
Search period end: 10 November 2020 00:00
Orbit: 656 x 4221 km, 34.3° (Epoch: 30 October)

Date Brightness Start Highest point End Pass type
(mag) Time Alt. Az. Time Alt. Az. Time Alt. Az.
07 Nov 10.8 05:12:30 10° SSW 05:18:22 15° SSE 05:22:48 10° SE visible
08 Nov 11.1 04:02:45 10° S 04:06:48 12° SSE 04:10:13 10° SE visible
09 Nov 10.5 05:12:52 10° SSW 05:21:20 21° SSE 05:27:03 10° ESE visible
